This demonstration page uses our WeatherBlox Daily Observations layout. Learn more.

40.92945, -100.16068

Hourly Observations for May 25, 2017

Temp ( °F °C ) Dew Point ( °F °C ) Humidity (%) Winds ( mph kmh ) Pressure ( in mb ) Visibility ( mi km ) Precip ( " mm )
12:15 am 00:15 Clear 56 13.2 45 7.1 67 67 SE 16 26 29.56 1001 10 16.09344 0 0
12:35 am 00:35 Clear 55 13 45 7.2 68 68 SSE 12 19 29.56 1001 10 16.09344 0 0
12:55 am 00:55 Clear 55 13 45 7.3 69 69 SSE 15 24 29.56 1001 10 16.09344 0 0
1:15 am 01:15 Clear 55 12.9 46 7.5 70 70 SSE 13 20 29.56 1001 10 16.09344 0 0
1:35 am 01:35 Clear 55 12.7 45 7.4 70 70 SSE 14 22 29.56 1001 10 16.09344 0 0
1:55 am 01:55 Clear 54 12.4 45 7.2 71 71 SSE 16 26 29.53 1000 10 16.09344 0 0
2:15 am 02:15 Clear 54 12 45 7.3 73 73 SSE 13 20 29.56 1001 10 16.09344 0 0
2:35 am 02:35 Clear 53 11.7 45 7.1 74 74 SSE 13 20 29.56 1001 10 16.09344 0 0
2:55 am 02:55 Clear 53 11.6 45 7 74 74 SSE 13 20 29.56 1001 10 16.09344 0 0
3:15 am 03:15 Clear 53 11.5 44 6.8 73 73 SSE 13 20 29.56 1001 10 16.09344 0 0
3:35 am 03:35 Clear 52 11.3 45 7 75 75 SSE 10 17 29.56 1001 10 16.09344 0 0
3:55 am 03:55 Clear 52 11.2 45 7 76 76 SSE 12 19 29.56 1001 10 16.09344 0 0
4:15 am 04:15 Clear 52 11.2 44 6.9 75 75 SSE 14 22 29.53 1000 10 16.09344 0 0
4:35 am 04:35 Clear 53 11.5 44 6.8 73 73 SSE 16 26 29.53 1000 10 16.09344 0 0
4:55 am 04:55 Clear 52 11.3 44 6.9 75 75 SSE 15 24 29.53 1000 10 16.09344 0 0
5:15 am 05:15 Clear 53 11.5 44 6.8 73 73 SSE 15 24 29.53 1000 10 16.09344 0 0
5:35 am 05:35 Clear 52 11 44 6.8 76 76 SSE 10 17 29.53 1000 10 16.09344 0 0
5:55 am 05:55 Clear 51 10.8 44 6.8 77 77 SE 9 15 29.53 1000 10 16.09344 0 0
6:15 am 06:15 Sunny 51 10.6 45 7 79 79 SSE 10 17 29.53 1000 10 16.09344 0 0
6:35 am 06:35 Sunny 51 10.7 45 7 78 78 SSE 10 17 29.53 1000 10 16.09344 0 0
6:55 am 06:55 Sunny 51 10.6 45 7 79 79 SSE 13 20 29.53 1000 10 16.09344 0 0
7:15 am 07:15 Sunny 53 11.5 45 7.3 76 76 SSE 14 22 29.53 1000 10 16.09344 0 0
7:35 am 07:35 Sunny 53 11.8 46 7.5 75 75 S 10 17 29.56 1001 10 16.09344 0 0
7:55 am 07:55 Sunny 54 12.2 46 7.6 74 74 SSE 15 24 29.5 999 10 16.09344 0 0
8:15 am 08:15 Sunny 56 13.1 46 8 71 71 SSE 14 22 29.5 999 10 16.09344 0 0
8:35 am 08:35 Sunny 55 13 46 7.7 70 70 S 13 20 29.5 999 10 16.09344 0 0
8:55 am 08:55 Partly Cloudy 54 12.4 46 7.6 73 73 S 14 22 29.5 999 10 16.09344 0 0
9:15 am 09:15 Sunny 56 13.4 47 8.4 72 72 S 14 22 29.5 999 10 16.09344 0 0
9:35 am 09:35 Sunny 58 14.6 47 8.6 67 67 S 14 22 29.53 1000 10 16.09344 0 0
9:55 am 09:55 Sunny 58 14.4 47 8.6 68 68 S 13 20 29.53 1000 10 16.09344 0 0
10:15 am 10:15 Sunny 60 15.3 48 9.1 67 67 S 12 19 29.5 999 10 16.09344 0 0
10:35 am 10:35 Partly Cloudy 59 15.1 48 8.9 67 67 S 14 22 29.5 999 10 16.09344 0 0
10:55 am 10:55 Sunny 62 16.6 49 9.6 64 64 S 13 20 29.47 998 10 16.09344 0 0
11:15 am 11:15 Partly Cloudy 60 15.7 49 9.7 68 68 SSE 6 9 29.47 998 10 16.09344 0 0
11:35 am 11:35 Partly Cloudy 62 16.8 51 10.5 67 67 SSE 8 13 29.47 998 10 16.09344 0 0
11:55 am 11:55 Sunny 65 18.2 51 10.6 61 61 S 8 13 29.47 998 10 16.09344 0 0
12:15 pm 12:15 Sunny 65 18.4 52 11.1 63 63 S 8 13 29.47 998 10 16.09344 0 0
12:35 pm 12:35 Sunny 67 19.5 53 11.5 60 60 SSE 8 13 29.44 997 10 16.09344 0 0
12:55 pm 12:55 Sunny 67 19.3 51 10.6 57 57 SSE 3 6 29.41 996 10 16.09344 0 0
1:15 pm 13:15 Sunny 67 19.7 52 10.9 57 57 SE 7 11 29.41 996 10 16.09344 0 0
1:35 pm 13:35 Sunny 69 20.5 51 10.8 54 54 E 5 7 29.44 997 10 16.09344 0 0
1:55 pm 13:55 Sunny 70 21.2 52 11.2 53 53 Calm 29.44 997 10 16.09344 0 0
2:15 pm 14:15 Sunny 71 21.5 52 10.9 51 51 Calm 29.44 997 10 16.09344 0 0
2:35 pm 14:35 Sunny 71 21.5 53 11.8 54 54 N 3 6 29.44 997 10 16.09344 0 0
2:55 pm 14:55 Sunny 73 22.6 54 12.2 52 52 SE 6 9 29.38 995 10 16.09344 0 0
3:15 pm 15:15 Sunny 73 22.5 53 11.7 51 51 E 7 11 29.38 995 10 16.09344 0 0
3:35 pm 15:35 Sunny 74 23.2 55 12.8 52 52 SE 9 15 29.38 995 10 16.09344 0 0
3:55 pm 15:55 Sunny 75 24.1 56 13.4 51 51 SE 9 15 29.38 995 10 16.09344 0 0
4:15 pm 16:15 Sunny 76 24.3 56 13.3 50 50 ESE 8 13 29.38 995 10 16.09344 0 0
4:35 pm 16:35 Sunny 75 23.8 55 12.5 49 49 SSE 3 6 29.41 996 10 16.09344 0 0
4:55 pm 16:55 Sunny 74 23.2 55 13 53 53 SE 6 9 29.41 996 10 16.09344 0 0
5:15 pm 17:15 Sunny 74 23.3 54 12.4 50 50 Calm 29.41 996 10 16.09344 0 0
5:35 pm 17:35 Sunny 74 23.1 56 13.2 54 54 Calm 29.41 996 10 16.09344 0 0
5:55 pm 17:55 Sunny 73 23 56 13.4 55 55 Calm 29.44 997 10 16.09344 0 0
6:15 pm 18:15 Sunny 73 22.7 55 12.6 53 53 NNW 13 20 29.5 999 10 16.09344 0 0
6:35 pm 18:35 Sunny 72 22.1 56 13.3 58 58 N 9 15 29.5 999 10 16.09344 0 0
6:55 pm 18:55 Sunny 72 22.1 56 13.3 58 58 NNW 8 13 29.5 999 10 16.09344 0 0
7:15 pm 19:15 Partly Cloudy 71 21.6 57 13.9 62 62 NNE 6 9 29.47 998 10 16.09344 0 0
7:35 pm 19:35 Mostly Cloudy with Light Rain 70 21.2 57 14.1 64 64 NE 9 15 29.47 998 10 16.09344 0 0
7:55 pm 19:55 Partly Cloudy 69 20.5 57 14.1 67 67 NE 3 6 29.47 998 10 16.09344 0 0
8:15 pm 20:15 Sunny 68 20.1 57 13.9 68 68 E 3 6 29.5 999 10 16.09344 0 0
8:35 pm 20:35 Partly Cloudy 68 20.1 57 13.7 67 67 SW 3 6 29.53 1000 10 16.09344 0 0
8:55 pm 20:55 Partly Cloudy 67 19.5 57 14 71 71 Calm 29.59 1002 10 16.09344 0 0
9:15 pm 21:15 Clear 67 19.3 57 13.9 71 71 SSW 3 6 29.59 1002 10 16.09344 0 0
9:35 pm 21:35 Clear 66 19 57 13.8 72 72 SSE 3 6 29.59 1002 10 16.09344 0 0
9:55 pm 21:55 Clear 65 18.2 58 14.2 78 78 NE 3 6 29.59 1002 10 16.09344 0 0
10:15 pm 22:15 Partly Cloudy 65 18.3 57 13.9 76 76 NE 7 11 29.59 1002 10 16.09344 0 0
10:35 pm 22:35 Clear 65 18.1 57 14 77 77 ENE 8 13 29.59 1002 10 16.09344 0 0
10:55 pm 22:55 Clear 65 18.1 57 13.8 76 76 ESE 6 9 29.59 1002 10 16.09344 0 0
11:15 pm 23:15 Clear 64 17.6 57 13.7 78 78 NE 5 7 29.59 1002 10 16.09344 0 0
11:35 pm 23:35 Clear 63 17.4 57 13.7 79 79 NNE 7 11 29.59 1002 10 16.09344 0 0
11:55 pm 23:55 Clear 64 17.6 56 13.6 78 78 N 8 13 29.62 1003 10 16.09344 0 0

Powered by AerisWeather